Weather History for Morganton, NC

Change the Weather History Date:

Monday, April 7, 2014

  Actual Average (KHKY) Record (KHKY)
Temperature  
Mean Temperature 48 °F -  
Max Temperature 51 °F 67 °F 85 °F (1967)
Min Temperature 45 °F 43 °F 25 °F (1982)
Degree Days  
Heating Degree Days 17    
Moisture  
Dew Point 47 °F    
Average Humidity 98    
Maximum Humidity 100    
Minimum Humidity 71    
Precipitation  
Precipitation 1.00 in - - ()
Sea Level Pressure  
Sea Level Pressure 29.92 in    
Wind  
Wind Speed 1 mph (North)    
Max Wind Speed 7 mph    
Max Gust Speed -    
Visibility 6 miles    
Events Rain    
Averages and records for this station are not official NWS values.
T = Trace of Precipitation, MM = Missing Value Source: NWS Daily Summary

Daily Weather History Graph

Daily Weather History Graph

Search for Another Location

Airport:

Trip Planner

Search our weather history database for the weather conditions in past years. The results will help you decide how hot, cold, wet, or windy it might be!

Date:

Astronomy

Apr. 07, 2014 Rise Set
Actual Time 7:04 AM EDT 7:53 PM EDT
Civil Twilight 6:38 AM EDT 8:19 PM EDT
Nautical Twilight 6:07 AM EDT 8:49 PM EDT
Astronomical Twilight 5:36 AM EDT 9:21 PM EDT
Moon 1:04 PM EDT (4/7) 2:24 AM EDT (4/7)
Length of Visible Light 13h 40m
Length of Day
12h 48m
First Quarter, 53% of the Moon is Illuminated
Apr 7
First Quarter
Apr 15
Full
Apr 22
Last Quarter
Apr 29
New
May 6
First Quarter

Hourly Weather History & Observations

Time (EDT) Temp. Windchill Dew Point Humidity Pressure Visibility Wind Dir Wind Speed Gust Speed Precip Events Conditions
12:15 AM 51.1 °F - 42.1 °F 71% 30.12 in 10.0 mi Calm Calm - N/A   Overcast
12:35 AM 49.1 °F - 45.7 °F 88% 30.12 in 10.0 mi Calm Calm - N/A Rain Light Rain
12:55 AM 49.3 °F - 44.1 °F 82% 30.11 in 10.0 mi Calm Calm - N/A Rain Rain
1:15 AM 48.4 °F - 46.2 °F 92% 30.12 in 10.0 mi Calm Calm - N/A Rain Rain
1:35 AM 48.0 °F - 46.8 °F 95% 30.10 in 4.0 mi Calm Calm - N/A Rain Rain
1:55 AM 47.7 °F - 44.8 °F 90% 30.10 in 10.0 mi Calm Calm - N/A Rain Light Rain
2:15 AM 47.5 °F - 44.6 °F 90% 30.09 in 10.0 mi Calm Calm - N/A Rain Light Rain
2:35 AM 47.1 °F - 45.1 °F 93% 30.07 in 7.0 mi NNE 3.5 mph - N/A Rain Rain
2:55 AM 46.9 °F - 45.0 °F 93% 30.07 in 10.0 mi Calm Calm - N/A Rain Light Rain
3:15 AM 46.6 °F - 45.5 °F 96% 30.05 in 7.0 mi Calm Calm - N/A Rain Light Rain
3:35 AM 46.6 °F - 45.9 °F 97% 30.04 in 7.0 mi ENE 3.5 mph - N/A Rain Rain
3:55 AM 46.4 °F - 45.9 °F 98% 30.04 in 5.0 mi Calm Calm - N/A Rain Rain
4:15 AM 46.6 °F - 46.4 °F 99% 30.05 in 5.0 mi Calm Calm - 0.02 in Rain Rain
4:35 AM 46.0 °F - 45.9 °F 99% 30.03 in 4.0 mi Calm Calm - 0.05 in Rain Rain
4:55 AM 46.4 °F 45.2 °F 46.4 °F 100% 30.03 in 4.0 mi North 3.5 mph - 0.07 in Rain Rain
5:15 AM 45.9 °F 44.6 °F 45.9 °F 100% 30.02 in 4.0 mi NNE 3.5 mph - 0.04 in Rain Rain
5:35 AM 45.9 °F - 45.9 °F 100% 30.05 in 2.0 mi Calm Calm - 0.12 in Rain Heavy Rain
5:55 AM 45.7 °F 44.4 °F 45.7 °F 100% 30.03 in 2.0 mi North 3.5 mph - 0.21 in   Overcast
6:15 AM 45.5 °F 44.2 °F 45.5 °F 100% 30.03 in 2.5 mi North 3.5 mph - 0.06 in Rain Light Rain
6:35 AM 45.5 °F 41.8 °F 45.5 °F 100% 30.00 in 2.0 mi NE 6.9 mph - 0.14 in   Overcast
6:55 AM 45.5 °F 43.2 °F 45.5 °F 100% 30.02 in 2.5 mi North 4.6 mph - 0.23 in   Overcast
7:15 AM 45.5 °F 43.2 °F 45.5 °F 100% 30.00 in 2.5 mi NNE 4.6 mph - 0.07 in   Overcast
7:35 AM 45.5 °F 44.2 °F 45.5 °F 100% 30.01 in 2.5 mi NW 3.5 mph - 0.17 in Rain Heavy Rain
7:55 AM 45.5 °F 44.2 °F 45.5 °F 100% 29.99 in 1.8 mi North 3.5 mph - 0.26 in Rain Rain
8:15 AM 45.5 °F 44.2 °F 45.5 °F 100% 30.03 in 0.5 mi NW 3.5 mph - 0.11 in Rain Light Rain
8:35 AM 45.5 °F 44.2 °F 45.5 °F 100% 30.03 in 2.0 mi NW 3.5 mph - 0.18 in   Overcast
8:55 AM 45.5 °F - 45.5 °F 100% 30.02 in 4.0 mi Calm Calm - 0.21 in Rain Rain
9:15 AM 45.7 °F - 45.7 °F 100% 30.03 in 7.0 mi Calm Calm - 0.01 in Rain Rain
9:35 AM 46.0 °F - 46.0 °F 100% 30.04 in 7.0 mi Calm Calm - 0.02 in Rain Light Rain
9:55 AM 46.4 °F - 46.4 °F 100% 30.01 in 7.0 mi Calm Calm - 0.02 in Rain Rain
10:15 AM 46.6 °F - 46.6 °F 100% 30.00 in 10.0 mi Calm Calm - N/A Rain Light Rain
10:35 AM 46.9 °F - 46.9 °F 100% 29.94 in 10.0 mi East 4.6 mph - N/A Rain Light Rain
10:55 AM 47.3 °F - 47.3 °F 100% 29.95 in 10.0 mi East 3.5 mph - N/A   Overcast
11:15 AM 47.3 °F - 47.1 °F 99% 29.93 in 10.0 mi Calm Calm - N/A Rain Light Rain
11:55 AM 47.7 °F - 46.4 °F 95% 29.92 in 10.0 mi Calm Calm - N/A   Overcast
12:15 PM 47.7 °F - 46.6 °F 96% 29.95 in 10.0 mi Calm Calm - N/A   Overcast
12:35 PM 47.7 °F - 46.4 °F 95% 29.94 in 10.0 mi Calm Calm - N/A   Overcast
12:55 PM 47.8 °F - 46.2 °F 94% 29.94 in 10.0 mi Calm Calm - N/A   Overcast
1:15 PM 48.2 °F - 47.1 °F 96% 29.90 in 10.0 mi Calm Calm - N/A   Overcast
1:35 PM 48.2 °F - 47.3 °F 97% 29.93 in 10.0 mi Calm Calm - N/A   Overcast
1:55 PM 48.2 °F - 47.3 °F 97% 29.92 in 10.0 mi Calm Calm - N/A   Overcast
2:15 PM 48.2 °F - 47.3 °F 97% 29.89 in 10.0 mi Calm Calm - N/A   Overcast
2:35 PM 47.8 °F - 47.3 °F 98% 29.87 in 10.0 mi Calm Calm - N/A   Overcast
2:55 PM 48.2 °F - 47.7 °F 98% 29.87 in 7.0 mi Calm Calm - N/A   Overcast
3:15 PM 48.0 °F - 47.7 °F 99% 29.87 in 5.0 mi Calm Calm - N/A   Light Drizzle
3:35 PM 48.2 °F - 48.0 °F 99% 29.85 in 3.0 mi Calm Calm - N/A   Overcast
3:55 PM 48.2 °F - 48.0 °F 99% 29.82 in 4.0 mi North 4.6 mph - N/A Rain Light Rain
4:15 PM 48.2 °F - 48.2 °F 100% 29.80 in 4.0 mi Calm Calm - N/A   Overcast
4:35 PM 48.7 °F - 48.6 °F 99% 29.79 in 7.0 mi Calm Calm - N/A   Overcast
4:55 PM 48.6 °F - 48.4 °F 99% 29.78 in 4.0 mi Calm Calm - N/A   Overcast
5:15 PM 48.6 °F - 48.4 °F 99% 29.78 in 4.0 mi Calm Calm - N/A   Overcast
5:35 PM 48.7 °F - 48.6 °F 99% 29.77 in 5.0 mi Calm Calm - N/A   Overcast
5:55 PM 48.9 °F - 48.7 °F 99% 29.77 in 7.0 mi Calm Calm - N/A   Overcast
6:15 PM 49.1 °F - 49.1 °F 100% 29.76 in 7.0 mi Calm Calm - N/A   Overcast
6:35 PM 48.9 °F - 48.7 °F 99% 29.75 in 7.0 mi Calm Calm - N/A   Overcast
6:55 PM 49.1 °F - 48.9 °F 99% 29.74 in 5.0 mi Calm Calm - N/A   Overcast
7:15 PM 49.1 °F - 49.1 °F 100% 29.75 in 3.0 mi Calm Calm - N/A   Overcast
7:35 PM 49.1 °F - 49.1 °F 100% 29.75 in 1.2 mi NNW 3.5 mph - N/A Rain Light Rain
7:55 PM 49.1 °F - 49.1 °F 100% 29.75 in 1.8 mi Calm Calm - N/A   Light Drizzle
8:15 PM 49.1 °F - 49.1 °F 100% 29.74 in 2.0 mi Calm Calm - N/A   Drizzle
8:35 PM 49.1 °F - 49.1 °F 100% 29.74 in 2.5 mi NW 3.5 mph - N/A   Overcast
8:55 PM 49.1 °F - 49.1 °F 100% 29.75 in 2.0 mi Calm Calm - N/A Rain Light Rain
9:15 PM 49.1 °F - 49.1 °F 100% 29.75 in 2.0 mi Calm Calm - N/A   Overcast
9:35 PM 49.1 °F - 49.1 °F 100% 29.75 in 2.0 mi Calm Calm - N/A Rain Light Rain
9:55 PM 49.1 °F - 49.1 °F 100% 29.75 in 3.0 mi Calm Calm - N/A   Overcast
10:15 PM 49.3 °F - 49.3 °F 100% 29.75 in 2.5 mi Calm Calm - N/A Rain Light Rain
10:35 PM 49.3 °F - 49.3 °F 100% 29.75 in 4.0 mi Calm Calm - N/A Rain Rain
10:55 PM 49.5 °F - 49.5 °F 100% 29.74 in 2.0 mi Calm Calm - N/A   Overcast
11:15 PM 49.5 °F - 49.5 °F 100% 29.73 in 4.0 mi Calm Calm - N/A Rain Rain
11:35 PM 49.5 °F - 49.5 °F 100% 29.72 in 3.0 mi Calm Calm - N/A   Overcast
11:55 PM 50.0 °F - 50.0 °F 100% 29.71 in 3.0 mi Calm Calm - N/A   Overcast